Content
SEND FEEDBACK

Daily
Averages
Monthly
Summary
United States of America

FAYETTE, MISSOURI


Home > North America > United States > Missouri
Elevation: 760 feet     Latitude: 39 09N     Longitude: 092 41W

WEATHER
 
SELECT A DAY
Number of Records: 86,691;   Date Range: 12/3/10 - 8/19/14
 
SHARE

PRINT THIS DATA

[ ← Previous Day ]
WEATHER ALMANAC - JANUARY 31, 2013
[ Next Day → ]
[ °C ]   °F
Weather ElementAverageHighLow
Temperature21.4 °F28.4 °F (9:55 am)10.6 °F (11:15 pm)
Dewpoint9.7 °F18.9 °F (7:55 am)-2.4 °F (9:55 pm)
Humidity61 %73 % (7:55 am)49 % (2:55 pm)
Barometer30.15 in30.46 in (11:15 pm)29.95 in (5:15 am)
Wind Speed10.9 mph20.7 mph (2:55 pm)
Wind Gust31.1 mph (2:35 pm)
Weather ElementAverage
Visibility10 mi
Wind DirectionWNW (283.2 °)

Weather ElementTotal
Precipitation---
Heating Degree Days45.5 (Base 65)
Averaged from 71 records on January 31, 2013
WEATHER CONDITIONS BREAKOUT
WIND DIRECTION BREAKOUT
WEATHER BY HOUR - JANUARY 31, 2013
[ °C ]   °F
Local TimeTemperatureDewpointHumidityBarometerVisibilityWind DirectionWind SpeedGust SpeedPrecipitationEventsConditions
12:35 AM25.7 °F16.7 °F69 %29.96 in10.0 miWest (270°)8.1 mphOvercast
12:55 AM25.7 °F16.3 °F68 %29.96 in10.0 miWest (260°)12.7 mphOvercast
1:15 AM25.5 °F15.8 °F67 %29.97 in10.0 miWest (280°)8.1 mph17.3 mphOvercast
1:35 AM25.3 °F14.7 °F64 %29.98 in10.0 miWest (270°)9.2 mph18.4 mphOvercast
1:55 AM25.0 °F14.4 °F64 %29.96 in10.0 miWSW (250°)4.6 mphMostly Cloudy
2:15 AM25.0 °F15.1 °F66 %29.96 in10.0 miWSW (250°)6.9 mphOvercast
2:35 AM25.3 °F16.0 °F68 %29.96 in10.0 miWSW (240°)4.6 mphOvercast
2:55 AM25.0 °F16.0 °F69 %29.96 in10.0 miWSW (250°)5.8 mphOvercast
3:15 AM25.2 °F16.3 °F69 %29.96 in10.0 miWSW (250°)5.8 mphOvercast
3:35 AM25.3 °F16.5 °F69 %29.96 in10.0 miWSW (250°)5.8 mphOvercast
3:55 AM25.5 °F16.7 °F69 %29.96 in10.0 miWSW (240°)8.1 mphOvercast
4:15 AM25.5 °F17.1 °F70 %29.96 in10.0 miWSW (240°)6.9 mphOvercast
4:35 AM25.7 °F17.1 °F70 %29.96 in10.0 miSW (230°)9.2 mphOvercast
4:55 AM25.9 °F17.4 °F70 %29.96 in10.0 miWSW (240°)6.9 mphOvercast
5:15 AM26.1 °F17.4 °F70 %29.95 in10.0 miWSW (240°)6.9 mphOvercast
5:35 AM26.2 °F17.6 °F70 %29.95 in10.0 miWest (270°)4.6 mphOvercast
5:55 AM26.2 °F18.0 °F71 %29.96 in10.0 miWSW (250°)5.8 mphOvercast
6:15 AM26.4 °F18.1 °F71 %29.95 in10.0 miWest (260°)4.6 mphOvercast
6:35 AM26.4 °F18.0 °F70 %29.96 in10.0 miWNW (290°)3.5 mphOvercast
6:55 AM26.4 °F17.6 °F69 %29.97 in10.0 miWest (260°)5.8 mphOvercast
7:15 AM26.6 °F18.3 °F71 %29.99 in10.0 miWest (270°)6.9 mphOvercast
7:35 AM26.6 °F18.5 °F71 %30.00 in10.0 miWest (270°)4.6 mphOvercast
7:55 AM26.6 °F18.9 °F73 %30.01 in10.0 miWest (270°)6.9 mphOvercast
8:15 AM26.6 °F18.7 °F72 %30.02 in10.0 miWest (280°)6.9 mphOvercast
8:35 AM27.0 °F18.9 °F72 %30.03 in10.0 miWest (270°)8.1 mphOvercast
8:55 AM27.3 °F18.5 °F69 %30.03 in10.0 miWest (270°)10.4 mph17.3 mphOvercast
9:15 AM27.9 °F18.1 °F67 %30.04 in10.0 miWNW (290°)9.2 mphMostly Cloudy
9:35 AM28.2 °F17.4 °F64 %30.05 in10.0 miWest (280°)10.4 mphScattered Clouds
9:55 AM28.4 °F16.3 °F61 %30.05 in10.0 miWNW (290°)10.4 mph17.3 mphScattered Clouds
10:15 AM28.4 °F16.7 °F62 %30.06 in10.0 miNW (310°)13.8 mphScattered Clouds
10:35 AM28.0 °F16.5 °F62 %30.07 in10.0 miWNW (290°)13.8 mph20.7 mphOvercast
10:55 AM27.9 °F15.4 °F60 %30.08 in10.0 miWNW (290°)13.8 mph19.6 mphScattered Clouds
11:15 AM28.4 °F16.5 °F61 %30.08 in10.0 miWest (270°)12.7 mph17.3 mphMostly Cloudy
11:35 AM28.0 °F16.3 °F62 %30.09 in10.0 miWNW (300°)10.4 mph19.6 mphOvercast
11:55 AM27.3 °F14.7 °F59 %30.09 in10.0 miWNW (300°)16.1 mph23.0 mphOvercast
12:15 PM26.8 °F13.3 °F57 %30.09 in10.0 miWNW (290°)15.0 mph20.7 mphOvercast
12:35 PM26.2 °F10.9 °F52 %30.09 in10.0 miNW (310°)19.6 mph26.5 mphOvercast
12:55 PM25.2 °F9.1 °F51 %30.11 in10.0 miWNW (290°)13.8 mph28.8 mphOvercast
1:15 PM23.9 °F9.3 °F54 %30.13 in10.0 miWNW (290°)15.0 mph25.3 mphOvercast
1:35 PM22.3 °F7.2 °F52 %30.14 in10.0 miWNW (300°)15.0 mph27.6 mphOvercast
1:55 PM22.5 °F7.2 °F52 %30.14 in10.0 miWNW (300°)15.0 mph24.2 mphOvercast
2:15 PM22.6 °F7.7 °F53 %30.16 in10.0 miNW (320°)19.6 mph26.5 mphOvercast
2:35 PM21.6 °F5.9 °F51 %30.18 in10.0 miWest (280°)19.6 mph31.1 mphMostly Cloudy
2:55 PM21.9 °F5.4 °F49 %30.19 in10.0 miNW (310°)20.7 mph26.5 mphMostly Cloudy
3:15 PM21.2 °F4.6 °F49 %30.21 in10.0 miNW (310°)19.6 mph29.9 mphMostly Cloudy
3:35 PM20.5 °F4.6 °F50 %30.22 in10.0 miWNW (300°)13.8 mph25.3 mphMostly Cloudy
3:55 PM19.2 °F3.7 °F51 %30.23 in10.0 miNW (310°)18.4 mph26.5 mphMostly Cloudy
4:15 PM18.1 °F3.0 °F52 %30.24 in10.0 miNW (310°)12.7 mph23.0 mphScattered Clouds
4:35 PM18.0 °F3.0 °F52 %30.24 in10.0 miWNW (300°)15.0 mph23.0 mphMostly Cloudy
4:55 PM17.6 °F3.4 °F54 %30.25 in10.0 miWNW (290°)10.4 mph19.6 mphMostly Cloudy
5:15 PM17.2 °F3.2 °F54 %30.26 in10.0 miWNW (300°)13.8 mph19.6 mphMostly Cloudy
5:35 PM16.3 °F2.7 °F55 %30.27 in10.0 miWNW (300°)15.0 mph23.0 mphScattered Clouds
5:55 PM15.8 °F2.8 °F57 %30.29 in10.0 miWNW (300°)12.7 mph23.0 mphScattered Clouds
6:15 PM15.4 °F2.5 °F57 %30.30 in10.0 miWNW (300°)13.8 mph21.9 mphMostly Cloudy
6:35 PM14.5 °F1.8 °F57 %30.32 in10.0 miWNW (300°)13.8 mph23.0 mphClear
6:55 PM14.0 °F1.2 °F57 %30.33 in10.0 miNW (310°)17.3 mph28.8 mphScattered Clouds
7:15 PM13.6 °F1.6 °F59 %30.34 in10.0 miWNW (290°)12.7 mph19.6 mphOvercast
7:35 PM13.3 °F1.0 °F58 %30.35 in10.0 miNW (310°)12.7 mph21.9 mphScattered Clouds
7:55 PM12.6 °F0.0 °F57 %30.37 in10.0 miWNW (290°)12.7 mph21.9 mphScattered Clouds
8:15 PM12.0 °F-0.9 °F56 %30.38 in10.0 miWNW (300°)12.7 mph18.4 mphScattered Clouds
8:35 PM11.7 °F-0.9 °F57 %30.39 in10.0 miWNW (300°)9.2 mphClear
8:55 PM11.3 °F-1.1 °F57 %30.39 in10.0 miNW (310°)10.4 mphClear
9:15 PM11.3 °F-1.3 °F57 %30.40 in10.0 miNW (310°)11.5 mphClear
9:35 PM11.1 °F-2.0 °F56 %30.41 in10.0 miWNW (300°)11.5 mph17.3 mphClear
9:55 PM10.8 °F-2.4 °F56 %30.43 in10.0 miWNW (300°)5.8 mph17.3 mphClear
10:15 PM10.8 °F-2.0 °F56 %30.43 in10.0 miWNW (300°)9.2 mphClear
10:35 PM10.8 °F-1.8 °F57 %30.44 in10.0 miWNW (290°)8.1 mphScattered Clouds
10:55 PM10.8 °F-1.7 °F57 %30.44 in10.0 miWNW (300°)10.4 mph18.4 mphScattered Clouds
11:15 PM10.6 °F-1.8 °F57 %30.46 in10.0 miWest (280°)10.4 mphClear
11:35 PM10.6 °F-1.5 °F58 %30.46 in10.0 miWNW (290°)10.4 mphClear
11:55 PM10.8 °F-1.3 °F58 %30.46 in10.0 miWest (280°)9.2 mphClear
Hourly data recorded from KVER, located miles away from Fayette, Missouri







STORIES FROM OUR PARTNERS